Gold Country Challenge - Toss 7 - 6 Miles Georgetown

Station: Georgetown E School - T Race

Distance: 6 Miles    

Release: 13-Aug-2017 07:10

Weather Release: Mostly Clear    Arrival: Light Haze

Wind at Release:     Wind at Arrival:

Temp at Release: °    Temp at Arrival: °

Lofts: 93

Birds: 406

Clocked: 406

Released from Georgetown athletic field. 2700' Elevation
Drops Pos Breeder Pigeon Name Color Sex Ent Arrival Speed To Win Eligible Champ
1 Genesis Syndicate Loft - AZ 0362-AU17-GEN DC H 1 07:29:41.80 536.131 00:00:00 Yes
2 Jack Wilburn - CA 0808-AU17-HANG RC H 1 07:37:16.30 387.215 00:07:34 Lost
3 California Breeders Syndicate - CA 19030-AU17-AA BC H 1 07:52:15.40 249.901 00:22:34 Yes
4 Racing Pigeon Mall - WA 0700-AU17-RPM BC H 1 07:52:21.80 249.272 00:22:40 Lost
5 California Breeders Syndicate - CA 1170-AU17-AA Gold Digger BB H 2 07:53:56.50 240.319 00:24:15 Lost
6 Joe Sanford - CA 4393-AU17-JEDD BB H 1 07:56:28.50 227.219 00:26:47 Lost
7 Euro Dead - CA 6635-AU17-FSC Injured Wing SLT H 1 07:57:25.30 222.683 00:27:43 Inj
8 Genesis Syndicate Loft - AZ 0358-AU17-GEN BC H 2 07:57:41.40 221.430 00:28:00 Yes
9 John Hedderson - CA 7100-AU17-FSC 1080996x13938 BB H 1 07:57:50.70 220.713 00:28:09 Inj
10 Fleet Washington - DC 1769-AU17-FLET BB H 1 07:57:51.60 220.644 00:28:10 Lost
11 Richard Callahan - MO 1682-AU17-AA BB H 1 07:57:56.80 220.245 00:28:15 Lost
12 Dream Team - VT 0781-AU17-JCZL BB H 1 07:57:59.30 220.053 00:28:18 Lost
13 Ceyx Loft - CA 0851-AU17-CEYX BC H 1 07:58:00.00 220.000 00:28:18 Lost
14 Skychargers - CA 0186-AU17-SD DC H 1 07:58:00.80 219.939 00:28:19 Yes
15 California Breeders Syndicate - CA 4583-AU17-AA RC H 3 07:58:03.90 219.702 00:28:22 Lost
16 Rob Wilson - CA 1303-AU17-AVC BB H 1 07:58:08.00 219.391 00:28:26 Yes
17 Skychargers - CA 0517-AU17-CORO BBPD H 2 07:58:10.60 219.193 00:28:29 Lost
18 Perfection Loft - KS 3723-AU17-AA BB H 1 07:58:11.40 219.133 00:28:30 Lost
19 Marengo Creek Farms - AL 2701-AU17-MCF BB H 1 07:58:11.90 219.095 00:28:30 Lost
20 All In - CA 8472-AU17-BON BB H 1 07:58:13.60 218.966 00:28:32 Lost
21 Nanez Family Lofts - WI 4179-AU17-NFL BB H 1 07:58:15.70 218.807 00:28:34 Lost
22 Fog City Loft - CA 2328-AU17-FCL BB H 1 07:58:19.80 218.498 00:28:38 Yes
23 Goshentown Lofts - TN 3468-AU17-VITA DC H 1 07:58:20.20 218.468 00:28:38 Yes
24 Eastern Pearl Loft - VA 0251-AU17-EPL 🈚️量 251 BC H 1 07:58:21.50 218.370 00:28:40 Yes
25 Flying W - CA 0522-AU17-AUB Na/1648 hof BC H 1 07:58:21.90 218.340 00:28:40 Yes
26 D B Loft - CA 4139-AU17-JEDD '' HOME ALONE'' BB H 1 07:58:22.20 218.317 00:28:40 Yes
27 Genesis Syndicate Loft - AZ 0368-AU17-GEN BC H 3 07:58:26.50 217.994 00:28:45 Lost
28 Genesis Syndicate Loft - AZ 0348-AU17-GEN BB H 4 07:58:26.90 217.964 00:28:45 Yes
29 Hayloft - CA 7330-AU17-GSF BC H 1 07:58:31.50 217.620 00:28:50 Yes
30 John Partridge - CA 0548-AU17-PASO Hi-Sierra Glory BB H 1 07:58:32.90 217.515 00:28:51 Yes
31 Goshentown Lofts - TN 3447-AU17-VITA BBWF H 2 07:58:34.70 217.381 00:28:53 Lost
32 John Hedderson - CA 6996-AU17-FSC 6855x1261 BB H 2 07:58:41.90 216.845 00:29:00 Lost
33 Refried Dreams - AZ 0471-AU17-PSC BB H 1 07:58:47.70 216.416 00:29:06 Lost
34 A P C Loft - TX 17164-AU17-APC SLT H 1 07:58:49.00 216.320 00:29:07 Yes
35 H & H Flying Circus - CA 0712-AU17-ML BB H 1 07:58:49.40 216.290 00:29:08 Yes
36 Dream Team - VT 0716-AU17-JCZL BC H 2 07:58:53.30 216.002 00:29:12 Yes
37 Not Eligible - VA Disqualified 🈚️量 205 2 07:58:54.40 215.921 00:29:13 No
38 Dj Loft Of Utah - UT 35622-AU17-ARPU ADDISONS EMPIRE WHT H 1 07:58:56.60 215.760 00:29:15 Lost
39 California Breeders Syndicate - CA 36119-AU17-BB Firefly BB H 4 07:58:58.10 215.650 00:29:16 Lost
40 Richard Callahan - MO 1665-AU17-AA BB H 2 07:59:01.30 215.415 00:29:19 Yes
41 Flying W - CA 0506-AU17-AUB SLT H 2 07:59:04.30 215.195 00:29:23 Lost
42 Smith R.P.L. - UT 3082-AU17-SRPL BB H 1 07:59:05.50 215.108 00:29:24 Lost
43 Delmon And Oregel Lofty - NV 2496-AU17-WSJ BB H 1 07:59:10.90 214.714 00:29:29 Yes
44 Lopez/ Saenz - CA 0849-AU17-TCH BB H 1 07:59:14.50 214.453 00:29:33 Lost
45 Kim Wong - VT 10861-AU17-ARPU BB H 1 07:59:15.40 214.387 00:29:34 Yes
46 A P C Loft - TX 17169-AU17-APC BB H 2 07:59:17.90 214.206 00:29:36 Yes
47 Chala Loft - WA 1756-AU17-EVE BB H 1 07:59:25.90 213.628 00:29:44 Lost
48 Joe Sanford - CA 4400-AU17-JEDD BBSP H 2 07:59:31.30 213.240 00:29:49 Lost
49 Silicon Valley Syndicates - CA 0806-AU17-JEDD BB H 1 07:59:33.00 213.118 00:29:51 Lost
50 California Breeders Syndicate - CA 1168-AU17-AA Brutus BC H 5 07:59:33.50 213.082 00:29:52 Lost
51 Skychargers - CA 0011-AU17-CORO BC H 3 07:59:39.80 212.632 00:29:58 Yes
52 Bolgar Loft - CA 7596-AU17-FSC BC H 1 07:59:40.40 212.589 00:29:59 Lost
53 Applis Loft - MO 40852-AU17-AA Choco Gianni CHOC H 1 07:59:42.50 212.439 00:30:01 Lost
54 Lopez/ Saenz - CA 0833-AU17-TCH DC H 2 07:59:49.20 211.963 00:30:07 Lost
55 Joe Sanford - CA 4372-AU17-JEDD OPAL H 3 07:59:51.10 211.828 00:30:09 Lost
56 H & H Flying Circus - CA 0711-AU17-ML BC H 2 07:59:52.00 211.765 00:30:10 Lost
57 Huan Qiu Zhang - NC 1825-IF17-JNC BC H 1 08:00:03.50 210.954 00:30:22 Lost
58 Silicon Valley Syndicates - CA 0807-AU17-JEDD BB H 2 08:00:07.30 210.687 00:30:26 Yes
59 Ap Amy - MD 11996-IF17-FOYS PIED H 1 08:00:08.20 210.624 00:30:26 Yes
60 Eastern Pearl Loft - VA 0241-AU17-EPL 🈚️量 241 BB H 3 08:00:08.80 210.582 00:30:27 Yes
61 Goshentown Lofts - TN 3417-AU17-VITA BB H 3 08:00:09.50 210.533 00:30:28 Lost
62 Joe Sanford - CA 4399-AU17-JEDD BCWF H 4 08:00:14.20 210.205 00:30:32 Yes
63 Kay Eastwood - CA 19026-AU17-AA BB H 1 08:00:16.30 210.059 00:30:34 Lost
64 Louis Foy - CA 1049-AU17-WSJ DC H 1 08:00:17.50 209.975 00:30:36 Lost
65 B S Lofts - CA 0228-AU17-BSL Sandy KMP BB H 1 08:00:21.40 209.704 00:30:40 Lost
66 Avalos Loft - CA 0145-AU17-TULE BB H 1 08:00:23.50 209.558 00:30:42 Yes
67 Tou Loft - TN 0106-AU17-TOU PIED H 1 08:00:34.90 208.771 00:30:53 Lost
68 Thunder Birds Breeding/Rodriguez Loft - TX 19807-AU17-ARPU Make it a Karlsberg! BB C 1 08:00:38.30 208.538 00:30:56 Lost
69 B S Lofts - CA 0226-AU17-BSL Van Claus BCWF H 2 08:00:43.30 208.195 00:31:02 Lost
70 V Lin - IA 0369-AU17-VLIN BC H 1 08:00:43.80 208.161 00:31:02 Lost
71 De La O-Siino - CA 4190-AU17-COOK BB H 1 08:00:45.00 208.079 00:31:03 Yes
72 Dream Team - VT 0799-AU17-JCZL DC H 3 08:00:45.50 208.045 00:31:04 Yes
73 D B Loft - CA 4151-AU17-JEDD '' MAMAS MINK'' BB H 2 08:00:53.00 207.534 00:31:11 Lost
74 Tou Loft - TN 0019-AU17-TOU BB H 2 08:00:53.60 207.493 00:31:12 Yes
75 Barrett Family Loft - IL 0021-AU17-BARR BC H 1 08:00:57.70 207.215 00:31:16 Yes
76 America\'s Dream Loft - IL 0074-AU17-ADL BC H 1 08:00:58.20 207.181 00:31:16 Lost
77 Joe Sanford - CA 4382-AU17-JEDD BCSP H 5 08:01:00.50 207.025 00:31:19 Lost
78 D B Loft - CA 4138-AU17-JEDD '' FLATLANDER'' BGRZ H 3 08:01:00.90 206.998 00:31:19 Lost
79 Blue - Face - CA 1188-AU17-FVC BB H 1 08:01:04.10 206.782 00:31:22 Yes
80 Gypsy Lofts - CA 5182-AU17-AA Sydney BB H 1 08:01:10.80 206.331 00:31:29 Lost
81 Bob & Susie - CA 0861-AU17-AUB BB H 1 08:01:16.00 205.982 00:31:34 Lost
82 Drama Queen Loft - TX 0321-AU17-GCI BBWF H 1 08:01:17.70 205.868 00:31:36 Lost
83 Fleet Washington - DC 1722-AU17-FLET BBWF H 2 08:01:19.70 205.734 00:31:38 Lost
84 Drama Queen Loft - TX 0322-AU17-GCI BB H 2 08:01:20.60 205.674 00:31:39 Yes
85 De La O-Siino - CA 4049-AU17-COOK BC H 2 08:01:24.40 205.421 00:31:43 Lost
86 Genesis Syndicate Loft - AZ 0355-AU17-GEN PIED H 5 08:01:26.10 205.308 00:31:44 Yes
87 Barrett Family Loft - IL 0003-AU17-BARR BC H 2 08:01:32.60 204.876 00:31:51 Yes
88 Mike Belus - CA 6731-AU17-JEDD BB H 1 08:01:41.30 204.301 00:32:00 Yes
89 Blue - Face - CA 1110-AU17-FVC BC H 2 08:01:42.60 204.216 00:32:01 Yes
90 Gypsy Lofts - CA 5181-AU17-AA Geordie BB H 2 08:01:42.90 204.196 00:32:01 Lost
91 Lito Maniego Loft - CA 13707-AU17-ARPU BC H 1 08:01:45.70 204.012 00:32:04 Yes
92 Lechuga Loft - TX 0143-AU17-AMA BB H 1 08:01:46.30 203.973 00:32:04 Lost
93 Plymouth Peak Pro Challenge - UT 7123-AU17-GS BBWF H 1 08:01:58.10 203.201 00:32:16 Yes
93 Sugaronni Loft - CA 7025-AU17-FOYS Oddie MLY H 1 08:01:58.10 203.201 00:32:16 Lost
95 America\'s Dream Loft - IL 0082-AU17-ADL BB H 2 08:01:59.10 203.136 00:32:17 Lost
96 Lucky Luster Loft - CA 0001-AU17-RBPC BB H 1 08:02:03.70 202.836 00:32:22 Lost
97 Ap Amy - MD 0656-AU17-IPBB GRIZ H 2 08:02:15.00 202.105 00:32:33 Lost
98 Barrett Family Loft - IL 0011-AU17-BARR BB H 3 08:02:17.00 201.976 00:32:35 Lost
99 Flying W - CA 0557-AU17-AUB Nyquest BC H 3 08:02:18.00 201.912 00:32:36 Yes
100 Sierra Ranch - CA 0718-AU17-SR BB H 1 08:02:21.40 201.694 00:32:40 Yes

There are 205 bird records

Note: These Race Results are unofficial and subject to change until verified by the Race Committee and declared final.